N3HPR Weather Reports


time (UTC)temp
C
wind
direction
speed
KPH
gust
KPH
rain 1hr
cm
rain 24hr
cm
rain mn
cm
humidity
%
barometer
mb
20260503053054 24 248 3.2 11.3 0.00 0.00 0.00 81 1014.9
20260503052551 24 227 4.8 11.3 0.00 0.00 0.00 81 1015.1
20260503052051 24 244 6.4 11.3 0.00 0.00 0.00 81 1015.3
20260503051553 25 240 6.4 12.9 0.00 0.00 0.00 81 1015.3
20260503051056 25 221 6.4 12.9 0.00 0.00 0.00 81 1015.5
20260503050553 25 279 6.4 12.9 0.00 0.00 0.00 81 1015.6
20260503045553 25 245 8.0 14.5 0.00 0.00 0.00 81 1015.4
20260503045052 25 254 6.4 14.5 0.00 0.00 0.00 82 1015.6
20260503044556 25 219 6.4 14.5 0.00 0.00 0.00 82 1015.5
20260503044055 25 224 6.4 14.5 0.00 0.00 0.00 82 1015.6
20260503043552 25 243 6.4 17.7 0.00 0.00 0.00 82 1015.6
20260503043054 25 257 8.0 17.7 0.00 0.00 0.00 81 1015.6
20260503042554 25 248 8.0 16.1 0.00 0.00 0.00 81 1015.5
20260503042055 25 252 8.0 16.1 0.00 0.00 0.00 81 1015.6
20260503041559 25 246 4.8 14.5 0.00 0.00 0.00 81 1015.6
20260503041055 25 295 6.4 14.5 0.00 0.00 0.00 81 1015.4
20260503040551 25 247 9.7 14.5 0.00 0.00 0.00 81 1015.3
20260503040056 26 257 6.4 14.5 0.00 0.00 0.00 81 1015.2
20260503035552 26 308 4.8 14.5 0.00 0.00 0.00 81 1015.1
20260503035054 26 263 8.0 16.1 0.00 0.00 0.00 81 1015.4
20260503034557 26 281 8.0 16.1 0.00 0.00 0.00 81 1015.2
20260503034052 26 248 8.0 12.9 0.00 0.00 0.00 80 1015.3
20260503033551 26 239 6.4 12.9 0.00 0.00 0.00 80 1015.2
20260503033100 26 261 4.8 12.9 0.00 0.00 0.00 80 1015.0
20260503032552 25 268 6.4 14.5 0.00 0.00 0.00 80 1015.0
20260503032053 25 261 6.4 14.5 0.00 0.00 0.00 80 1014.8
20260503031557 25 252 6.4 12.9 0.00 0.00 0.00 79 1014.9
20260503031051 25 224 4.8 12.9 0.00 0.00 0.00 79 1014.9
20260503030553 25 203 6.4 16.1 0.00 0.00 0.00 79 1014.9
20260503030054 26 248 6.4 16.1 0.00 0.00 0.00 79 1015.0
20260503025551 26 243 8.0 16.1 0.00 0.00 0.00 79 1015.0
20260503025057 25 263 8.0 16.1 0.00 0.00 0.00 78 1014.9
20260503024553 25 248 6.4 12.9 0.00 0.00 0.00 78 1014.8
20260503024055 25 250 6.4 12.9 0.00 0.00 0.00 78 1014.8
20260503023552 26 273 6.4 12.9 0.00 0.00 0.00 77 1014.8
20260503023052 26 263 6.4 12.9 0.00 0.00 0.00 77 1015.0
20260503022551 26 248 6.4 16.1 0.00 0.00 0.00 77 1014.9
20260503022055 26 248 8.0 16.1 0.00 0.00 0.00 76 1014.9
20260503021554 26 246 6.4 12.9 0.00 0.00 0.00 76 1014.8
20260503021051 26 249 4.8 11.3 0.00 0.00 0.00 76 1014.9
20260503020551 26 248 4.8 11.3 0.00 0.00 0.00 75 1014.8
20260503020052 26 261 6.4 17.7 0.00 0.00 0.00 74 1014.7
20260503015552 26 252 4.8 17.7 0.00 0.00 0.00 73 1014.7
20260503015054 26 245 6.4 14.5 0.00 0.00 0.00 73 1014.6
20260503014612 26 255 9.7 14.5 0.00 0.00 0.00 72 1014.7
20260503014051 26 249 8.0 16.1 0.00 0.00 0.00 72 1014.6
20260503013552 26 249 8.0 16.1 0.00 0.00 0.00 72 1014.6
20260503013053 26 269 6.4 16.1 0.00 0.00 0.00 71 1014.5
20260503012551 27 251 8.0 17.7 0.00 0.00 0.00 70 1014.4
20260503012051 27 254 8.0 17.7 0.00 0.00 0.00 70 1014.3
20260503011620 27 258 9.7 17.7 0.00 0.00 0.00 69 1014.2
20260503011054 27 236 9.7 17.7 0.00 0.00 0.00 69 1014.1
20260503010551 27 231 9.7 17.7 0.00 0.00 0.00 69 1014.2
20260503010055 27 248 9.7 16.1 0.00 0.00 0.00 68 1014.1
20260503005554 27 240 11.3 16.1 0.00 0.00 0.00 67 1014.1
20260503005052 27 252 11.3 19.3 0.00 0.00 0.00 66 1013.9
20260503004555 27 245 11.3 20.9 0.00 0.00 0.00 65 1013.9
20260503004052 27 279 11.3 20.9 0.00 0.00 0.00 65 1013.9
20260503003554 28 258 9.7 17.7 0.00 0.00 0.00 64 1013.9
20260503003107 28 244 11.3 22.5 0.00 0.00 0.00 63 1013.8
20260503002551 28 253 11.3 22.5 0.00 0.00 0.00 63 1013.7
20260503002051 28 240 14.5 22.5 0.00 0.00 0.00 62 1013.7
20260503001553 28 246 12.9 22.5 0.00 0.00 0.00 61 1013.5
20260503001052 28 244 12.9 22.5 0.00 0.00 0.00 61 1013.4
20260503000552 28 265 14.5 24.1 0.00 0.00 0.00 61 1013.3
20260503000055 28 265 12.9 24.1 0.00 0.00 0.00 60 1013.4
20260502235551 29 259 14.5 20.9 0.00 0.00 0.00 59 1013.3
20260502235051 29 248 11.3 19.3 0.00 0.00 0.00 58 1013.2
20260502234614 29 250 9.7 17.7 0.00 0.00 0.00 57 1013.2
20260502234051 30 252 12.9 20.9 0.00 0.00 0.00 55 1013.0
20260502233551 30 250 12.9 20.9 0.00 0.00 0.00 54 1012.9
20260502233057 30 255 9.7 19.3 0.00 0.00 0.00 55 1012.8
20260502232552 30 277 11.3 16.1 0.00 0.00 0.00 52 1012.8
20260502232051 30 248 9.7 16.1 0.00 0.00 0.00 55 1012.7
20260502231558 30 265 9.7 14.5 0.00 0.00 0.00 52 1012.5
20260502231053 30 242 8.0 16.1 0.00 0.00 0.00 51 1012.4
20260502230554 30 259 8.0 16.1 0.00 0.00 0.00 51 1012.4
20260502230100 31 244 8.0 14.5 0.00 0.00 0.00 47 1012.4
20260502225551 31 269 8.0 14.5 0.00 0.00 0.00 50 1012.2
20260502225050 31 263 6.4 16.1 0.00 0.00 0.00 46 1012.1
20260502224556 31 268 8.0 19.3 0.00 0.00 0.00 45 1012.0
20260502224052 31 262 9.7 20.9 0.00 0.00 0.00 45 1012.0
20260502223551 31 285 9.7 20.9 0.00 0.00 0.00 44 1012.0
20260502223102 31 278 9.7 20.9 0.00 0.00 0.00 43 1011.9
20260502222551 32 249 9.7 24.1 0.00 0.00 0.00 42 1011.9
20260502222050 32 234 11.3 24.1 0.00 0.00 0.00 42 1011.8
20260502221557 32 215 16.1 29.0 0.00 0.00 0.00 41 1011.9
20260502221051 32 254 14.5 29.0 0.00 0.00 0.00 44 1011.9
20260502220551 32 266 12.9 25.7 0.00 0.00 0.00 43 1011.8
20260502220103 32 255 14.5 25.7 0.00 0.00 0.00 43 1011.8
20260502215554 32 242 16.1 25.7 0.00 0.00 0.00 43 1011.7
20260502215051 32 256 12.9 25.7 0.00 0.00 0.00 43 1011.7
20260502214559 32 209 14.5 27.4 0.00 0.00 0.00 43 1011.6
20260502214051 32 272 9.7 27.4 0.00 0.00 0.00 42 1011.7
20260502213552 32 267 16.1 27.4 0.00 0.00 0.00 43 1011.6
20260502213054 32 281 12.9 24.1 0.00 0.00 0.00 45 1011.6
20260502212551 32 296 14.5 29.0 0.00 0.00 0.00 42 1011.5
20260502212052 32 277 14.5 29.0 0.00 0.00 0.00 44 1011.5
20260502211556 32 275 12.9 29.0 0.00 0.00 0.00 42 1011.5
20260502211050 32 259 19.3 29.0 0.00 0.00 0.00 42 1011.5
20260502210550 32 238 12.9 32.2 0.00 0.00 0.00 40 1011.5
20260502210054 32 266 14.5 32.2 0.00 0.00 0.00 40 1011.4
20260502205550 32 248 17.7 30.6 0.00 0.00 0.00 40 1011.3
20260502205051 32 248 14.5 25.7 0.00 0.00 0.00 43 1011.4
20260502204559 32 236 16.1 30.6 0.00 0.00 0.00 41 1011.4
20260502204051 32 258 14.5 30.6 0.00 0.00 0.00 42 1011.4
20260502203552 32 251 14.5 30.6 0.00 0.00 0.00 41 1011.5
20260502203116 32 257 16.1 30.6 0.00 0.00 0.00 42 1011.5
20260502202551 32 242 20.9 33.8 0.00 0.00 0.00 40 1011.4
20260502202054 32 243 20.9 33.8 0.00 0.00 0.00 42 1011.5
20260502201609 32 264 17.7 27.4 0.00 0.00 0.00 43 1011.5
20260502201054 32 277 16.1 25.7 0.00 0.00 0.00 45 1011.7
20260502200553 32 263 17.7 33.8 0.00 0.00 0.00 45 1011.7
20260502200100 32 252 20.9 33.8 0.00 0.00 0.00 45 1011.6
20260502195550 32 252 20.9 33.8 0.00 0.00 0.00 45 1011.7
20260502195050 32 281 17.7 29.0 0.00 0.00 0.00 45 1011.8
20260502194555 32 243 19.3 37.0 0.00 0.00 0.00 47 1011.7
20260502194051 32 269 16.1 37.0 0.00 0.00 0.00 46 1011.7
20260502193553 32 253 20.9 35.4 0.00 0.00 0.00 45 1011.9
20260502193106 32 246 19.3 30.6 0.00 0.00 0.00 46 1011.9
20260502192552 32 261 12.9 35.4 0.00 0.00 0.00 47 1011.9
20260502192050 32 251 17.7 35.4 0.00 0.00 0.00 47 1012.1
20260502191556 32 238 17.7 35.4 0.00 0.00 0.00 46 1012.0
20260502191051 32 248 20.9 35.4 0.00 0.00 0.00 46 1012.1
20260502190551 32 259 20.9 33.8 0.00 0.00 0.00 45 1012.1
20260502190052 32 234 22.5 33.8 0.00 0.00 0.00 45 1012.1
20260502185550 32 257 14.5 35.4 0.00 0.00 0.00 45 1012.2
20260502185050 32 252 19.3 35.4 0.00 0.00 0.00 49 1012.1
20260502184556 32 259 17.7 32.2 0.00 0.00 0.00 49 1012.1
20260502184050 32 244 16.1 35.4 0.00 0.00 0.00 49 1012.1
20260502183551 32 240 19.3 35.4 0.00 0.00 0.00 46 1012.2
20260502183056 32 244 19.3 35.4 0.00 0.00 0.00 47 1012.2
20260502182550 32 242 17.7 32.2 0.00 0.00 0.00 47 1012.2
20260502182051 32 241 19.3 33.8 0.00 0.00 0.00 50 1012.2
20260502181551 32 217 16.1 35.4 0.00 0.00 0.00 49 1012.3
20260502181051 32 250 20.9 35.4 0.00 0.00 0.00 48 1012.2
20260502180551 32 257 24.1 35.4 0.00 0.00 0.00 53 1012.4
20260502164051 31 183 11.3 22.5 0.00 0.00 0.00 61 1013.0
20260502163551 31 195 11.3 19.3 0.00 0.00 0.00 63 1012.9
20260502163058 31 242 9.7 24.1 0.00 0.00 0.00 64 1013.0
20260502162551 31 233 11.3 24.1 0.00 0.00 0.00 64 1013.0
20260502162052 31 266 9.7 25.7 0.00 0.00 0.00 63 1013.1
20260502161553 31 220 14.5 25.7 0.00 0.00 0.00 63 1013.2
20260502161051 31 246 9.7 20.9 0.00 0.00 0.00 63 1013.2
20260502160551 30 250 11.3 20.9 0.00 0.00 0.00 64 1013.2
20260502152051 30 234 12.9 24.1 0.00 0.00 0.00 65 1013.5
20260502151612 30 244 12.9 24.1 0.00 0.00 0.00 65 1013.6
20260502151052 30 218 12.9 24.1 0.00 0.00 0.00 65 1013.6
20260502150550 30 281 4.8 22.5 0.00 0.00 0.00 65 1013.6
20260502140104 28 235 8.0 24.1 0.00 0.00 0.00 70 1013.1
20260502130555 27 258 6.4 14.5 0.00 0.00 0.00 80 1013.2
20260502123553 26 120 3.2 9.7 0.00 0.00 0.00 83 1013.2
20260502123057 26 163 3.2 9.7 0.00 0.00 0.00 84 1013.3
20260502122551 26 176 4.8 11.3 0.00 0.00 0.00 84 1013.3
20260502122055 26 208 3.2 11.3 0.00 0.00 0.00 84 1013.4
20260502121601 25 155 3.2 9.7 0.00 0.00 0.00 85 1013.3
20260502121058 25 170 1.6 6.4 0.00 0.00 0.00 85 1013.4
20260502120556 25 145 1.6 9.7 0.00 0.00 0.00 86 1013.3
20260502115554 25 186 1.6 6.4 0.00 0.00 0.00 86 1013.2
20260502115054 24 155 0.0 4.8 0.00 0.00 0.00 87 1013.3
20260502114559 24 131 1.6 4.8 0.00 0.00 0.00 87 1013.2
20260502114055 24 160 0.0 4.8 0.00 0.00 0.00 87 1013.3
20260502113554 23 105 0.0 4.8 0.00 0.00 0.00 87 1013.1
20260502113104 23 0 0.0 0.0 0.00 0.00 0.00 87 1013.3
20260502112554 23 0 0.0 0.0 0.00 0.00 0.00 87 1013.3
20260502112050 23 0 0.0 0.0 0.00 0.00 0.00 87 1013.4
20260502111601 23 0 0.0 0.0 0.00 0.00 0.00 87 1013.4
20260502111053 23 0 0.0 0.0 0.00 0.00 0.00 87 1013.4
20260502110551 23 0 0.0 0.0 0.00 0.00 0.00 87 1013.3
20260502110055 23 0 0.0 0.0 0.00 0.00 0.00 86 1013.3
20260502105554 23 0 0.0 0.0 0.00 0.00 0.00 86 1013.3
20260502105051 23 0 0.0 0.0 0.00 0.00 0.00 86 1013.3
20260502104607 23 0 0.0 0.0 0.00 0.00 0.00 86 1013.1
20260502104054 23 0 0.0 0.0 0.00 0.00 0.00 86 1013.1
20260502103554 23 0 0.0 0.0 0.00 0.00 0.00 86 1013.2
20260502103052 23 0 0.0 0.0 0.00 0.00 0.00 86 1013.2
20260502102557 23 0 0.0 0.0 0.00 0.00 0.00 86 1013.3
20260502102053 23 0 0.0 0.0 0.00 0.00 0.00 86 1013.3
20260502101607 23 0 0.0 0.0 0.00 0.00 0.00 86 1013.1
20260502101051 23 0 0.0 0.0 0.00 0.00 0.00 86 1013.0
20260502100557 23 0 0.0 0.0 0.00 0.00 0.00 86 1013.0
20260502091055 23 0 0.0 3.2 0.00 0.00 0.00 85 1013.2
20260502090552 23 279 0.0 3.2 0.00 0.00 0.00 85 1013.3
20260502071053 23 297 0.0 3.2 0.00 0.00 0.00 83 1013.3
20260502070554 23 289 0.0 3.2 0.00 0.00 0.00 82 1013.3
20260502070115 23 315 0.0 3.2 0.00 0.00 0.00 82 1013.3
20260502065551 23 0 0.0 3.2 0.00 0.00 0.00 82 1013.3
20260502065054 23 0 0.0 3.2 0.00 0.00 0.00 82 1013.4
20260502064555 23 277 1.6 3.2 0.00 0.00 0.00 82 1013.5
20260502064053 23 297 0.0 4.8 0.00 0.00 0.00 82 1013.4
20260502063554 23 266 1.6 6.4 0.00 0.00 0.00 82 1013.5
20260502063111 23 266 1.6 6.4 0.00 0.00 0.00 81 1013.5
20260502062558 23 267 1.6 6.4 0.00 0.00 0.00 82 1013.4
20260502062054 23 279 0.0 4.8 0.00 0.00 0.00 81 1013.5
20260502061554 23 0 0.0 4.8 0.00 0.00 0.00 80 1013.5
20260502061053 23 266 0.0 3.2 0.00 0.00 0.00 80 1013.5
20260502060554 23 0 0.0 3.2 0.00 0.00 0.00 79 1013.5
20260502060059 23 286 0.0 3.2 0.00 0.00 0.00 78 1013.6
20260502055551 23 0 0.0 3.2 0.00 0.00 0.00 78 1013.5
20260502055057 23 294 0.0 3.2 0.00 0.00 0.00 78 1013.5
20260502054602 24 0 0.0 0.0 0.00 0.00 0.00 78 1013.5
20260502054057 24 0 0.0 0.0 0.00 0.00 0.00 78 1013.5
20260502053553 24 0 0.0 0.0 0.00 0.00 0.00 78 1013.5